Regional Weather Roundup
Issued by NWS Midland/Odessa, TX

Skip options and go directly to product.
Home | Oldest Version | Next Version | Current Version | All | Text Only | Save Text | Print | Product List | Glossary On

Skip product version selection by date and time.   
062
ASUS44 KMAF 271401
RWRMAF
MIDLAND AREA WEATHER ROUNDUP
NATIONAL WEATHER SERVICE MIDLAND TX
900 AM CDT FRI MAR 27 2015

...IN SOUTHWEST TEXAS AND SOUTHEAST NEW MEXICO...

CITY           SKY/WX    TMP DP  RH WIND       PRES   REMARKS
ALPINE         SUNNY     47  32  56 SW7       30.33S
ANDREWS        FAIR      48  30  49 SW7       30.20S
ARTESIA        SUNNY     46  30  53 CALM      30.22R
BIG SPRING     SUNNY     43  34  70 SE3       30.23S
CARLSBAD       SUNNY     44  35  70 CALM      30.20R
DRYDEN           N/A     52  37  56 SW8       30.22R
FORT STOCKTON    N/A     51  32  48 SW15      30.23R
GUAD PASS      SUNNY     46  27  47 W18       30.29R WCI  39
HOBBS          SUNNY     46  28  49 SW8       30.21S
MARFA          SUNNY     39  36  87 CALM      30.32S
MIDLAND AIRPK  SUNNY     51  34  53 CALM      30.22R
MIDLAND INTL   SUNNY     49  35  58 SW6       30.21R
ODESSA           N/A     49  34  56 CALM      30.21R
PECOS          SUNNY     39  35  87 CALM      30.23R
PRESIDIO       FAIR      51  36  57 N5        30.28R
SEMINOLE       SUNNY     44  30  57 W10       30.21R WCI  39
SNYDER         SUNNY     41  30  66 CALM      30.21R
WINK           SUNNY     46  34  62 CALM      30.21R
$$
...OTHER STATIONS IN TEXAS...

CITY           SKY/WX    TMP DP  RH WIND       PRES   REMARKS
ABILENE        SUNNY     52  31  44 N7        30.21R
AMARILLO       SUNNY     48  28  46 E7        30.20S
AUSTIN         MOSUNNY   51  39  63 W3        30.19S
BROWNSVILLE    MOSUNNY   59  51  75 NW7       30.24R
CORPUS CHRISTI MOSUNNY   54  47  77 NW6       30.22R
DALLAS FTW     MOSUNNY   53  37  54 NW7       30.14R
DEL RIO        SUNNY     48  44  86 CALM      30.23S
EL PASO        MOSUNNY   48  31  51 CALM      30.26R
HOUSTON INT    SUNNY     53  43  68 NW8       30.19R
LUBBOCK        MOSUNNY   47  26  44 N7        30.20R
SAN ANGELO     SUNNY     48  33  56 SW8       30.21R
SAN ANTONIO    SUNNY     51  40  65 NW5       30.21R
WACO           SUNNY     50  41  71 W5        30.17R
WICHITA FALLS  NOT AVBL
$$
...OTHER LOCATIONS IN NEW MEXICO...

CITY           SKY/WX    TMP DP  RH WIND       PRES   REMARKS
ALAMAGORDO     MOSUNNY   46  23  39 SW3       30.28R
ALBUQUERQUE    MOSUNNY   43  21  41 SE3       30.32R
CANNON AFB     NOT AVBL
CLOVIS         SUNNY     41  27  56 NW6       30.20S WCI  37
HOLLOMAN AFB   NOT AVBL
ROSWELL        SUNNY     40  28  62 NW5       30.22R WCI  37
RUIDOSO        SUNNY     41  16  36 W6        30.33R WCI  37
SANTA FE       MOSUNNY   37  18  46 NE8       30.31R WCI  31
TRUTH OR CONSE SUNNY     45  21  38 N6        30.28R
TUCUMCARI      SUNNY     46  26  45 NW5       30.19R
$$

USA.gov is the U.S. government's official web portal to all federal, state and local government web resources and services.